Time,TemperatureF,DewpointF,PressureIn,WindDirection,WindDirectionDegrees,WindSpeedMPH,WindSpeedGustMPH,Humidity,HourlyPrecipIn,Conditions,Clouds,dailyrainin,SoftwareType,DateUTC
2013-06-26 00:00:00,77.1,73.9,30.00,SSW,195,2.0,2.0,90,0.00,,,0.00,Wunderground v.1.15,2013-06-26 04:00:00,
2013-06-26 00:05:00,77.1,74.3,30.00,South,182,2.0,2.0,91,0.00,,,0.00,Wunderground v.1.15,2013-06-26 04:05:00,
2013-06-26 00:10:00,77.2,74.4,30.00,SSW,193,2.0,2.0,91,0.00,,,0.00,Wunderground v.1.15,2013-06-26 04:10:00,
2013-06-26 00:20:00,77.2,74.0,30.00,ESE,121,2.0,3.0,90,0.00,,,0.00,Wunderground v.1.15,2013-06-26 04:20:00,
2013-06-26 00:25:00,77.2,74.0,30.00,SSE,154,2.0,3.0,90,0.00,,,0.00,Wunderground v.1.15,2013-06-26 04:25:00,
2013-06-26 00:30:00,77.2,74.0,30.00,South,184,1.0,2.0,90,0.00,,,0.00,Wunderground v.1.15,2013-06-26 04:30:00,
2013-06-26 00:40:00,77.2,74.0,30.00,ESE,123,2.0,3.0,90,0.00,,,0.00,Wunderground v.1.15,2013-06-26 04:40:00,
2013-06-26 00:45:00,77.3,74.1,30.00,SE,142,2.0,3.0,90,0.00,,,0.00,Wunderground v.1.15,2013-06-26 04:45:00,
2013-06-26 00:50:00,77.3,74.1,30.00,SSW,210,1.0,1.0,90,0.00,,,0.00,Wunderground v.1.15,2013-06-26 04:50:00,
2013-06-26 01:00:00,77.3,74.1,29.99,SE,146,1.0,1.0,90,0.00,,,0.00,Wunderground v.1.15,2013-06-26 05:00:00,
2013-06-26 01:10:00,77.3,73.8,30.00,WSW,242,2.0,2.0,89,0.00,,,0.00,Wunderground v.1.15,2013-06-26 05:10:00,
2013-06-26 01:20:00,77.3,73.8,30.00,SSW,204,0.0,0.0,89,0.00,,,0.00,Wunderground v.1.15,2013-06-26 05:20:00,
2013-06-26 01:25:00,77.2,73.7,30.00,SSW,208,1.0,1.0,89,0.00,,,0.00,Wunderground v.1.15,2013-06-26 05:25:00,
2013-06-26 01:35:00,77.1,73.9,30.01,SW,233,1.0,2.0,90,0.00,,,0.00,Wunderground v.1.15,2013-06-26 05:35:00,
2013-06-26 01:45:00,77.0,73.8,30.01,WSW,246,1.0,1.0,90,0.00,,,0.00,Wunderground v.1.15,2013-06-26 05:45:00,
2013-06-26 01:50:00,76.9,73.7,30.02,WSW,246,0.0,1.0,90,0.00,,,0.00,Wunderground v.1.15,2013-06-26 05:50:00,
2013-06-26 02:00:00,76.7,73.5,30.01,WSW,246,1.0,1.0,90,0.00,,,0.00,Wunderground v.1.15,2013-06-26 06:00:00,
2013-06-26 02:10:00,76.6,73.8,30.01,WSW,246,0.0,0.0,91,0.00,,,0.00,Wunderground v.1.15,2013-06-26 06:10:00,
2013-06-26 02:15:00,76.5,73.7,30.01,WSW,246,0.0,1.0,91,0.00,,,0.00,Wunderground v.1.15,2013-06-26 06:15:00,
2013-06-26 02:25:00,76.3,73.5,30.01,WSW,246,0.0,1.0,91,0.00,,,0.00,Wunderground v.1.15,2013-06-26 06:25:00,
2013-06-26 02:35:00,76.2,73.4,30.01,WSW,246,0.0,0.0,91,0.00,,,0.00,Wunderground v.1.15,2013-06-26 06:35:00,
2013-06-26 02:45:00,76.0,73.5,30.01,WSW,246,0.0,0.0,92,0.00,,,0.00,Wunderground v.1.15,2013-06-26 06:45:00,
2013-06-26 02:50:00,75.9,73.4,30.01,WSW,246,0.0,0.0,92,0.00,,,0.00,Wunderground v.1.15,2013-06-26 06:50:00,
2013-06-26 03:00:00,75.8,73.6,30.01,WSW,246,0.0,0.0,93,0.00,,,0.00,Wunderground v.1.15,2013-06-26 07:00:00,
2013-06-26 03:10:00,75.6,73.4,30.01,WSW,246,0.0,0.0,93,0.00,,,0.00,Wunderground v.1.15,2013-06-26 07:10:00,
2013-06-26 03:20:00,75.5,73.3,30.01,WSW,246,0.0,0.0,93,0.00,,,0.00,Wunderground v.1.15,2013-06-26 07:20:00,
2013-06-26 03:25:00,75.4,73.2,30.01,WSW,246,0.0,0.0,93,0.00,,,0.00,Wunderground v.1.15,2013-06-26 07:25:00,
2013-06-26 03:35:00,75.3,73.1,30.01,WSW,246,0.0,0.0,93,0.00,,,0.00,Wunderground v.1.15,2013-06-26 07:35:00,
2013-06-26 03:45:00,75.1,72.9,30.00,WSW,246,0.0,0.0,93,0.00,,,0.00,Wunderground v.1.15,2013-06-26 07:45:00,
2013-06-26 03:50:00,75.1,72.9,30.00,WSW,246,0.0,0.0,93,0.00,,,0.00,Wunderground v.1.15,2013-06-26 07:50:00,
2013-06-26 04:00:00,74.9,72.7,30.00,WSW,246,0.0,0.0,93,0.00,,,0.00,Wunderground v.1.15,2013-06-26 08:00:00,
2013-06-26 04:10:00,74.7,72.5,30.01,WSW,246,0.0,0.0,93,0.00,,,0.00,Wunderground v.1.15,2013-06-26 08:10:00,
2013-06-26 04:20:00,74.6,72.4,30.00,WSW,246,0.0,0.0,93,0.00,,,0.00,Wunderground v.1.15,2013-06-26 08:20:00,
2013-06-26 04:25:00,74.6,72.4,30.01,WSW,246,0.0,1.0,93,0.00,,,0.00,Wunderground v.1.15,2013-06-26 08:25:00,
2013-06-26 04:30:00,74.5,72.7,30.01,WSW,246,0.0,0.0,94,0.00,,,0.00,Wunderground v.1.15,2013-06-26 08:30:00,
2013-06-26 04:40:00,74.4,72.6,30.01,WSW,246,0.0,0.0,94,0.00,,,0.00,Wunderground v.1.15,2013-06-26 08:40:00,
2013-06-26 04:45:00,74.3,72.5,30.01,WSW,246,0.0,0.0,94,0.00,,,0.00,Wunderground v.1.15,2013-06-26 08:45:00,
2013-06-26 04:50:00,74.3,72.5,30.01,WSW,246,0.0,0.0,94,0.00,,,0.00,Wunderground v.1.15,2013-06-26 08:50:00,
2013-06-26 05:00:00,74.2,72.4,30.01,WSW,246,0.0,0.0,94,0.00,,,0.00,Wunderground v.1.15,2013-06-26 09:00:00,
2013-06-26 05:10:00,74.1,72.3,30.01,WSW,246,0.0,0.0,94,0.00,,,0.00,Wunderground v.1.15,2013-06-26 09:10:00,
2013-06-26 05:20:00,74.0,72.2,30.01,WSW,246,0.0,0.0,94,0.00,,,0.00,Wunderground v.1.15,2013-06-26 09:20:00,
2013-06-26 05:30:00,73.9,72.1,30.01,WSW,246,0.0,0.0,94,0.00,,,0.00,Wunderground v.1.15,2013-06-26 09:30:00,
2013-06-26 05:40:00,73.8,72.0,30.01,WSW,244,0.0,0.0,94,0.00,,,0.00,Wunderground v.1.15,2013-06-26 09:40:00,
2013-06-26 05:50:00,73.7,71.9,30.02,WSW,244,0.0,0.0,94,0.00,,,0.00,Wunderground v.1.15,2013-06-26 09:50:00,
2013-06-26 05:55:00,73.6,71.8,30.02,WSW,244,0.0,0.0,94,0.00,,,0.00,Wunderground v.1.15,2013-06-26 09:55:00,
2013-06-26 06:05:00,73.5,71.7,30.02,WSW,244,0.0,0.0,94,0.00,,,0.00,Wunderground v.1.15,2013-06-26 10:05:00,
2013-06-26 06:10:00,73.5,71.7,30.02,WSW,244,0.0,0.0,94,0.00,,,0.00,Wunderground v.1.15,2013-06-26 10:10:00,
2013-06-26 06:20:00,73.5,71.7,30.02,WSW,244,0.0,0.0,94,0.00,,,0.00,Wunderground v.1.15,2013-06-26 10:20:00,
2013-06-26 06:30:00,73.6,71.8,30.03,WSW,244,0.0,0.0,94,0.00,,,0.00,Wunderground v.1.15,2013-06-26 10:30:00,
2013-06-26 06:35:00,73.7,71.9,30.03,WSW,244,0.0,1.0,94,0.00,,,0.00,Wunderground v.1.15,2013-06-26 10:35:00,
2013-06-26 06:45:00,73.8,72.0,30.03,WSW,244,0.0,0.0,94,0.00,,,0.00,Wunderground v.1.15,2013-06-26 10:45:00,
2013-06-26 06:55:00,73.9,72.1,30.02,WSW,244,0.0,2.0,94,0.00,,,0.00,Wunderground v.1.15,2013-06-26 10:55:00,
2013-06-26 07:00:00,74.0,72.2,30.03,WSW,244,0.0,0.0,94,0.00,,,0.00,Wunderground v.1.15,2013-06-26 11:00:00,
2013-06-26 07:10:00,74.1,72.3,30.03,WSW,244,0.0,0.0,94,0.00,,,0.00,Wunderground v.1.15,2013-06-26 11:10:00,
2013-06-26 07:15:00,74.2,72.0,30.03,WSW,244,0.0,1.0,93,0.00,,,0.00,Wunderground v.1.15,2013-06-26 11:15:00,
2013-06-26 07:25:00,74.3,72.1,30.03,WSW,244,0.0,1.0,93,0.00,,,0.00,Wunderground v.1.15,2013-06-26 11:25:00,
2013-06-26 07:35:00,74.6,72.4,30.03,SW,232,1.0,1.0,93,0.00,,,0.00,Wunderground v.1.15,2013-06-26 11:35:00,
2013-06-26 07:45:00,74.9,72.7,30.03,SSW,212,1.0,1.0,93,0.00,,,0.00,Wunderground v.1.15,2013-06-26 11:45:00,
2013-06-26 07:55:00,75.2,72.7,30.03,SW,218,0.0,3.0,92,0.00,,,0.00,Wunderground v.1.15,2013-06-26 11:55:00,
2013-06-26 08:05:00,75.5,72.7,30.03,SW,217,1.0,2.0,91,0.00,,,0.00,Wunderground v.1.15,2013-06-26 12:05:00,
2013-06-26 08:10:00,75.6,72.8,30.04,SW,222,1.0,1.0,91,0.00,,,0.00,Wunderground v.1.15,2013-06-26 12:10:00,
2013-06-26 08:20:00,75.9,73.1,30.03,West,267,1.0,4.0,91,0.00,,,0.00,Wunderground v.1.15,2013-06-26 12:20:00,
2013-06-26 08:30:00,76.0,72.5,30.03,West,263,1.0,1.0,89,0.00,,,0.00,Wunderground v.1.15,2013-06-26 12:30:00,
2013-06-26 08:40:00,76.1,72.3,30.04,SW,217,1.0,1.0,88,0.00,,,0.00,Wunderground v.1.15,2013-06-26 12:40:00,
2013-06-26 08:45:00,76.2,72.0,30.03,West,273,1.0,5.0,87,0.00,,,0.00,Wunderground v.1.15,2013-06-26 12:45:00,
2013-06-26 08:55:00,76.7,72.5,30.04,WSW,239,2.0,2.0,87,0.00,,,0.00,Wunderground v.1.15,2013-06-26 12:55:00,
2013-06-26 09:00:00,77.4,72.9,30.04,West,259,1.0,3.0,86,0.00,,,0.00,Wunderground v.1.15,2013-06-26 13:00:00,
2013-06-26 09:10:00,78.8,73.2,30.03,SSW,194,2.0,2.0,83,0.00,,,0.00,Wunderground v.1.15,2013-06-26 13:10:00,
2013-06-26 09:15:00,79.4,73.1,30.04,West,265,2.0,2.0,81,0.00,,,0.00,Wunderground v.1.15,2013-06-26 13:15:00,
2013-06-26 09:20:00,79.7,72.6,30.03,SSW,200,2.0,3.0,79,0.00,,,0.00,Wunderground v.1.15,2013-06-26 13:20:00,
2013-06-26 09:30:00,80.6,73.1,30.03,WNW,298,2.0,2.0,78,0.00,,,0.00,Wunderground v.1.15,2013-06-26 13:30:00,
2013-06-26 09:35:00,80.9,73.0,30.02,East,97,2.0,2.0,77,0.00,,,0.00,Wunderground v.1.15,2013-06-26 13:35:00,
2013-06-26 09:40:00,81.4,73.9,30.02,West,265,1.0,2.0,78,0.00,,,0.00,Wunderground v.1.15,2013-06-26 13:40:00,
2013-06-26 09:50:00,81.6,72.9,30.02,SSW,199,2.0,2.0,75,0.00,,,0.00,Wunderground v.1.15,2013-06-26 13:50:00,
2013-06-26 10:00:00,81.4,72.3,30.02,WNW,299,2.0,2.0,74,0.00,,,0.00,Wunderground v.1.15,2013-06-26 14:00:00,
2013-06-26 10:10:00,82.0,72.5,30.02,SE,146,2.0,3.0,73,0.00,,,0.00,Wunderground v.1.15,2013-06-26 14:10:00,
2013-06-26 10:20:00,82.6,73.1,30.01,SE,134,2.0,2.0,73,0.00,,,0.00,Wunderground v.1.15,2013-06-26 14:20:00,
2013-06-26 10:30:00,83.3,73.7,30.00,SSW,198,2.0,2.0,73,0.00,,,0.00,Wunderground v.1.15,2013-06-26 14:30:00,
2013-06-26 10:35:00,83.9,74.3,30.00,West,281,2.0,2.0,73,0.00,,,0.00,Wunderground v.1.15,2013-06-26 14:35:00,
2013-06-26 10:45:00,84.3,73.4,30.01,SSE,162,2.0,3.0,70,0.00,,,0.00,Wunderground v.1.15,2013-06-26 14:45:00,
2013-06-26 10:55:00,84.8,73.5,30.00,South,182,3.0,3.0,69,0.00,,,0.00,Wunderground v.1.15,2013-06-26 14:55:00,
2013-06-26 11:05:00,85.0,72.8,30.00,South,186,3.0,5.0,67,0.00,,,0.00,Wunderground v.1.15,2013-06-26 15:05:00,
2013-06-26 11:15:00,85.3,73.1,30.00,WNW,302,3.0,5.0,67,0.00,,,0.00,Wunderground v.1.15,2013-06-26 15:15:00,
2013-06-26 11:25:00,85.3,72.2,30.00,West,261,3.0,8.0,65,0.00,,,0.00,Wunderground v.1.15,2013-06-26 15:25:00,
2013-06-26 11:35:00,84.9,73.2,30.00,West,262,4.0,8.0,68,0.00,,,0.00,Wunderground v.1.15,2013-06-26 15:35:00,
2013-06-26 11:45:00,85.4,73.6,30.00,WNW,282,3.0,5.0,68,0.00,,,0.00,Wunderground v.1.15,2013-06-26 15:45:00,
2013-06-26 11:55:00,85.5,72.8,30.00,SE,135,3.0,3.0,66,0.00,,,0.00,Wunderground v.1.15,2013-06-26 15:55:00,
2013-06-26 12:00:00,85.6,73.8,30.00,SW,235,3.0,3.0,68,0.00,,,0.00,Wunderground v.1.15,2013-06-26 16:00:00,
2013-06-26 12:10:00,86.3,74.0,30.00,WNW,302,3.0,4.0,67,0.00,,,0.00,Wunderground v.1.15,2013-06-26 16:10:00,
2013-06-26 12:20:00,86.7,74.0,30.00,WSW,238,2.0,2.0,66,0.00,,,0.00,Wunderground v.1.15,2013-06-26 16:20:00,
2013-06-26 12:25:00,86.9,73.7,30.00,SSE,165,2.0,4.0,65,0.00,,,0.00,Wunderground v.1.15,2013-06-26 16:25:00,
2013-06-26 12:35:00,86.8,74.5,30.00,West,281,2.0,4.0,67,0.00,,,0.00,Wunderground v.1.15,2013-06-26 16:35:00,
2013-06-26 12:40:00,86.6,73.9,29.99,SSW,213,2.0,3.0,66,0.00,,,0.00,Wunderground v.1.15,2013-06-26 16:40:00,
2013-06-26 12:50:00,87.2,74.0,30.00,South,175,2.0,5.0,65,0.00,,,0.00,Wunderground v.1.15,2013-06-26 16:50:00,
2013-06-26 13:00:00,86.8,74.1,29.99,WNW,290,3.0,3.0,66,0.00,,,0.00,Wunderground v.1.15,2013-06-26 17:00:00,
2013-06-26 13:05:00,86.5,73.8,29.99,SE,134,3.0,4.0,66,0.00,,,0.00,Wunderground v.1.15,2013-06-26 17:05:00,
2013-06-26 13:15:00,86.7,74.0,29.98,South,179,3.0,3.0,66,0.00,,,0.00,Wunderground v.1.15,2013-06-26 17:15:00,
2013-06-26 13:20:00,87.0,74.3,29.98,SW,222,3.0,3.0,66,0.00,,,0.00,Wunderground v.1.15,2013-06-26 17:20:00,
2013-06-26 13:30:00,87.6,74.4,29.98,NW,307,2.0,5.0,65,0.00,,,0.00,Wunderground v.1.15,2013-06-26 17:30:00,
2013-06-26 13:40:00,88.0,74.3,29.98,SW,221,3.0,3.0,64,0.00,,,0.00,Wunderground v.1.15,2013-06-26 17:40:00,
2013-06-26 13:50:00,88.0,74.3,29.98,NW,306,2.0,2.0,64,0.00,,,0.00,Wunderground v.1.15,2013-06-26 17:50:00,
2013-06-26 13:55:00,87.8,74.6,29.98,West,266,2.0,2.0,65,0.00,,,0.00,Wunderground v.1.15,2013-06-26 17:55:00,
2013-06-26 14:05:00,88.5,74.3,29.97,West,277,2.0,2.0,63,0.00,,,0.00,Wunderground v.1.15,2013-06-26 18:05:00,
2013-06-26 14:15:00,88.6,74.4,29.97,SSW,194,2.0,2.0,63,0.00,,,0.00,Wunderground v.1.15,2013-06-26 18:15:00,
2013-06-26 14:20:00,88.4,75.1,29.97,SSE,148,2.0,2.0,65,0.00,,,0.00,Wunderground v.1.15,2013-06-26 18:20:00,
2013-06-26 14:30:00,87.0,76.5,29.96,West,276,2.0,2.0,71,0.00,,,0.00,Wunderground v.1.15,2013-06-26 18:30:00,
2013-06-26 14:40:00,87.0,75.6,29.95,SSW,208,1.0,1.0,69,0.00,,,0.00,Wunderground v.1.15,2013-06-26 18:40:00,
2013-06-26 14:50:00,86.1,74.3,29.95,West,281,1.0,5.0,68,0.00,,,0.00,Wunderground v.1.15,2013-06-26 18:50:00,
2013-06-26 15:00:00,83.0,73.9,29.95,WNW,290,2.0,2.0,74,0.00,,,0.00,Wunderground v.1.15,2013-06-26 19:00:00,
2013-06-26 15:05:00,82.7,74.8,29.95,South,187,1.0,2.0,77,0.00,,,0.00,Wunderground v.1.15,2013-06-26 19:05:00,
2013-06-26 15:15:00,82.9,74.6,29.95,West,259,1.0,1.0,76,0.00,,,0.00,Wunderground v.1.15,2013-06-26 19:15:00,
2013-06-26 15:20:00,82.5,74.9,29.96,ENE,75,1.0,1.0,78,0.00,,,0.00,Wunderground v.1.15,2013-06-26 19:20:00,
2013-06-26 15:25:00,81.8,75.4,29.95,ENE,74,1.0,2.0,81,0.00,,,0.00,Wunderground v.1.15,2013-06-26 19:25:00,
2013-06-26 15:35:00,80.4,75.5,29.95,East,85,1.0,3.0,85,0.00,,,0.00,Wunderground v.1.15,2013-06-26 19:35:00,
2013-06-26 15:40:00,79.8,74.9,29.95,ENE,71,3.0,3.0,85,0.00,,,0.00,Wunderground v.1.15,2013-06-26 19:40:00,
2013-06-26 15:50:00,80.6,75.7,29.95,ENE,74,3.0,3.0,85,0.00,,,0.00,Wunderground v.1.15,2013-06-26 19:50:00,
2013-06-26 16:00:00,81.6,76.6,29.95,ENE,76,3.0,3.0,85,0.00,,,0.00,Wunderground v.1.15,2013-06-26 20:00:00,
2013-06-26 16:10:00,82.2,76.2,29.94,SE,125,3.0,3.0,82,0.00,,,0.00,Wunderground v.1.15,2013-06-26 20:10:00,
2013-06-26 16:15:00,82.1,76.1,29.94,SE,130,3.0,3.0,82,0.00,,,0.00,Wunderground v.1.15,2013-06-26 20:15:00,
2013-06-26 16:25:00,81.5,75.1,29.94,SSE,150,2.0,4.0,81,0.00,,,0.00,Wunderground v.1.15,2013-06-26 20:25:00,
2013-06-26 16:35:00,81.0,74.2,29.95,SSE,148,2.0,4.0,80,0.00,,,0.00,Wunderground v.1.15,2013-06-26 20:35:00,
2013-06-26 16:40:00,80.7,74.0,29.94,SE,146,2.0,5.0,80,0.00,,,0.00,Wunderground v.1.15,2013-06-26 20:40:00,
2013-06-26 16:50:00,80.2,73.5,29.93,SE,144,2.0,2.0,80,0.00,,,0.00,Wunderground v.1.15,2013-06-26 20:50:00,
2013-06-26 17:00:00,79.7,72.2,29.93,East,97,2.0,2.0,78,0.00,,,0.00,Wunderground v.1.15,2013-06-26 21:00:00,
2013-06-26 17:10:00,79.5,72.0,29.93,ESE,114,3.0,3.0,78,0.00,,,0.00,Wunderground v.1.15,2013-06-26 21:10:00,
2013-06-26 17:15:00,79.5,72.0,29.93,SSE,155,2.0,3.0,78,0.00,,,0.00,Wunderground v.1.15,2013-06-26 21:15:00,
2013-06-26 17:25:00,79.5,71.7,29.93,SSE,148,3.0,3.0,77,0.00,,,0.00,Wunderground v.1.15,2013-06-26 21:25:00,
2013-06-26 17:30:00,79.5,72.0,29.92,SSW,196,2.0,2.0,78,0.00,,,0.00,Wunderground v.1.15,2013-06-26 21:30:00,
2013-06-26 17:35:00,79.5,72.0,29.92,South,171,2.0,2.0,78,0.00,,,0.00,Wunderground v.1.15,2013-06-26 21:35:00,
2013-06-26 17:45:00,79.8,73.8,29.92,SSW,201,2.0,6.0,82,0.00,,,0.00,Wunderground v.1.15,2013-06-26 21:45:00,
2013-06-26 17:50:00,79.9,74.6,29.92,SSE,166,3.0,6.0,84,0.00,,,0.00,Wunderground v.1.15,2013-06-26 21:50:00,
2013-06-26 18:00:00,80.2,74.9,29.92,SSE,152,4.0,4.0,84,0.00,,,0.00,Wunderground v.1.15,2013-06-26 22:00:00,
2013-06-26 18:10:00,80.6,75.3,29.92,West,281,2.0,2.0,84,0.00,,,0.00,Wunderground v.1.15,2013-06-26 22:10:00,
2013-06-26 18:15:00,80.7,75.1,29.92,SSW,192,2.0,4.0,83,0.00,,,0.00,Wunderground v.1.15,2013-06-26 22:15:00,
2013-06-26 18:25:00,80.9,75.2,29.92,SSE,155,2.0,3.0,83,0.00,,,0.00,Wunderground v.1.15,2013-06-26 22:25:00,
2013-06-26 18:35:00,81.0,75.0,29.92,South,180,2.0,2.0,82,0.00,,,0.00,Wunderground v.1.15,2013-06-26 22:35:00,
2013-06-26 18:45:00,81.1,74.7,29.92,WSW,246,1.0,4.0,81,0.00,,,0.00,Wunderground v.1.15,2013-06-26 22:45:00,
2013-06-26 18:55:00,81.2,75.2,29.92,SSE,156,1.0,2.0,82,0.00,,,0.00,Wunderground v.1.15,2013-06-26 22:55:00,
2013-06-26 19:00:00,81.1,75.1,29.92,SE,139,1.0,1.0,82,0.00,,,0.00,Wunderground v.1.15,2013-06-26 23:00:00,
2013-06-26 19:10:00,81.0,75.3,29.92,South,190,2.0,2.0,83,0.00,,,0.00,Wunderground v.1.15,2013-06-26 23:10:00,
2013-06-26 19:20:00,81.3,74.2,29.92,South,189,1.0,1.0,79,0.00,,,0.00,Wunderground v.1.15,2013-06-26 23:20:00,
2013-06-26 19:25:00,81.5,73.6,29.92,WNW,300,2.0,2.0,77,0.00,,,0.00,Wunderground v.1.15,2013-06-26 23:25:00,
2013-06-26 19:35:00,81.6,73.3,29.92,SSE,152,2.0,2.0,76,0.00,,,0.00,Wunderground v.1.15,2013-06-26 23:35:00,
2013-06-26 19:45:00,81.2,73.7,29.92,SE,132,2.0,5.0,78,0.00,,,0.00,Wunderground v.1.15,2013-06-26 23:45:00,
2013-06-26 19:55:00,80.9,73.4,29.93,SSW,200,1.0,2.0,78,0.00,,,0.00,Wunderground v.1.15,2013-06-26 23:55:00,
2013-06-26 20:05:00,80.6,73.5,29.94,SE,136,1.0,1.0,79,0.00,,,0.00,Wunderground v.1.15,2013-06-27 00:05:00,
2013-06-26 20:15:00,80.4,74.0,29.94,SSE,150,1.0,3.0,81,0.00,,,0.00,Wunderground v.1.15,2013-06-27 00:15:00,
2013-06-26 20:20:00,80.2,73.8,29.94,SE,141,1.0,1.0,81,0.00,,,0.00,Wunderground v.1.15,2013-06-27 00:20:00,
2013-06-26 20:30:00,79.8,74.2,29.94,WSW,238,2.0,2.0,83,0.00,,,0.00,Wunderground v.1.15,2013-06-27 00:30:00,
2013-06-26 20:40:00,79.5,74.6,29.94,SSW,200,1.0,1.0,85,0.00,,,0.00,Wunderground v.1.15,2013-06-27 00:40:00,
2013-06-26 20:50:00,79.2,74.6,29.94,South,175,1.0,1.0,86,0.00,,,0.00,Wunderground v.1.15,2013-06-27 00:50:00,
2013-06-26 21:00:00,78.9,74.4,29.94,SSW,201,2.0,2.0,86,0.00,,,0.00,Wunderground v.1.15,2013-06-27 01:00:00,
2013-06-26 21:10:00,78.7,73.8,29.94,SSE,148,2.0,3.0,85,0.00,,,0.00,Wunderground v.1.15,2013-06-27 01:10:00,
2013-06-26 21:20:00,78.5,72.9,29.94,South,184,2.0,2.0,83,0.00,,,0.00,Wunderground v.1.15,2013-06-27 01:20:00,
2013-06-26 21:30:00,78.3,71.6,29.94,WNW,282,2.0,2.0,80,0.00,,,0.00,Wunderground v.1.15,2013-06-27 01:30:00,
2013-06-26 21:40:00,78.2,71.5,29.94,West,271,1.0,1.0,80,0.00,,,0.00,Wunderground v.1.15,2013-06-27 01:40:00,
2013-06-26 21:50:00,77.9,71.6,29.94,West,275,1.0,1.0,81,0.00,,,0.00,Wunderground v.1.15,2013-06-27 01:50:00,
2013-06-26 22:00:00,77.6,71.3,29.95,WSW,257,1.0,1.0,81,0.00,,,0.00,Wunderground v.1.15,2013-06-27 02:00:00,
2013-06-26 22:10:00,77.4,71.5,29.96,WSW,250,0.0,0.0,82,0.00,,,0.00,Wunderground v.1.15,2013-06-27 02:10:00,
2013-06-26 22:15:00,77.2,71.3,29.96,WSW,250,0.0,1.0,82,0.00,,,0.00,Wunderground v.1.15,2013-06-27 02:15:00,
2013-06-26 22:25:00,77.0,71.4,29.95,WNW,298,0.0,0.0,83,0.00,,,0.00,Wunderground v.1.15,2013-06-27 02:25:00,
2013-06-26 22:30:00,76.8,71.6,29.95,WNW,298,0.0,0.0,84,0.00,,,0.00,Wunderground v.1.15,2013-06-27 02:30:00,
2013-06-26 22:35:00,76.7,71.5,29.95,WNW,298,0.0,0.0,84,0.00,,,0.00,Wunderground v.1.15,2013-06-27 02:35:00,
2013-06-26 22:45:00,76.4,71.6,29.95,South,172,1.0,2.0,85,0.00,,,0.00,Wunderground v.1.15,2013-06-27 02:45:00,
2013-06-26 22:50:00,76.2,71.4,29.95,SSW,198,1.0,1.0,85,0.00,,,0.00,Wunderground v.1.15,2013-06-27 02:50:00,
2013-06-26 22:55:00,76.1,71.6,29.96,SSW,198,0.0,1.0,86,0.00,,,0.00,Wunderground v.1.15,2013-06-27 02:55:00,
2013-06-26 23:05:00,75.9,71.4,29.96,SE,135,1.0,1.0,86,0.00,,,0.00,Wunderground v.1.15,2013-06-27 03:05:00,
2013-06-26 23:15:00,75.7,71.6,29.97,SW,232,1.0,1.0,87,0.00,,,0.00,Wunderground v.1.15,2013-06-27 03:15:00,
2013-06-26 23:25:00,75.6,71.5,29.97,SW,232,0.0,1.0,87,0.00,,,0.00,Wunderground v.1.15,2013-06-27 03:25:00,
2013-06-26 23:35:00,75.6,71.5,29.97,SW,231,0.0,2.0,87,0.00,,,0.00,Wunderground v.1.15,2013-06-27 03:35:00,
2013-06-26 23:45:00,75.6,71.5,29.98,WSW,249,1.0,1.0,87,0.00,,,0.00,Wunderground v.1.15,2013-06-27 03:45:00,
2013-06-26 23:55:00,75.5,71.0,29.98,WSW,244,2.0,4.0,86,0.00,,,0.00,Wunderground v.1.15,2013-06-27 03:55:00,